TimeEDT,TemperatureF,Dew PointF,Humidity,Sea Level PressureIn,VisibilityMPH,Wind Direction,Wind SpeedMPH,Gust SpeedMPH,PrecipitationIn,Events,Conditions,WindDirDegrees,DateUTC
12:12 AM,35.6,33.8,93,29.88,9.0,Calm,Calm,-,0.01,Rain,Light Rain,0,2013-03-28 04:12:00
12:19 AM,33.8,33.8,100,29.88,9.0,Calm,Calm,-,0.01,Rain,Light Rain,0,2013-03-28 04:19:00
12:54 AM,34.0,33.1,96,29.90,10.0,Calm,Calm,-,0.01,,Overcast,0,2013-03-28 04:54:00
1:24 AM,33.8,33.8,100,29.89,2.0,Calm,Calm,-,N/A,,Overcast,0,2013-03-28 05:24:00
1:36 AM,33.8,33.8,100,29.89,9.0,Calm,Calm,-,N/A,,Overcast,0,2013-03-28 05:36:00
1:54 AM,33.1,33.1,100,29.90,10.0,Calm,Calm,-,N/A,,Overcast,0,2013-03-28 05:54:00
2:54 AM,33.1,32.0,96,29.90,6.0,Calm,Calm,-,N/A,,Overcast,0,2013-03-28 06:54:00
3:54 AM,32.0,30.9,96,29.91,10.0,Calm,Calm,-,N/A,,Overcast,0,2013-03-28 07:54:00
4:54 AM,30.9,30.0,96,29.91,10.0,Calm,Calm,-,N/A,,Overcast,0,2013-03-28 08:54:00
5:54 AM,30.9,30.0,96,29.91,10.0,Calm,Calm,-,N/A,,Overcast,0,2013-03-28 09:54:00
6:54 AM,30.9,30.0,96,29.93,10.0,Calm,Calm,-,N/A,,Overcast,0,2013-03-28 10:54:00
7:54 AM,33.1,32.0,96,29.94,10.0,Calm,Calm,-,N/A,,Overcast,0,2013-03-28 11:54:00
8:54 AM,37.0,36.0,96,29.95,10.0,Calm,Calm,-,N/A,,Overcast,0,2013-03-28 12:54:00
9:54 AM,39.9,34.0,79,29.95,10.0,Calm,Calm,-,N/A,,Overcast,0,2013-03-28 13:54:00
10:54 AM,39.9,33.1,77,29.96,10.0,NNE,3.5,-,N/A,,Overcast,30,2013-03-28 14:54:00
11:54 AM,42.1,33.1,70,29.97,10.0,ESE,5.8,-,N/A,,Overcast,120,2013-03-28 15:54:00
12:54 PM,44.1,33.1,65,29.96,10.0,Calm,Calm,-,0.01,,Overcast,0,2013-03-28 16:54:00
1:54 PM,46.0,28.0,50,29.94,10.0,NW,6.9,-,N/A,,Mostly Cloudy,320,2013-03-28 17:54:00
2:54 PM,44.1,30.0,58,29.94,10.0,NE,6.9,-,0.00,,Overcast,50,2013-03-28 18:54:00
3:54 PM,45.0,30.9,58,29.94,10.0,Calm,Calm,-,0.00,,Overcast,0,2013-03-28 19:54:00
4:54 PM,44.1,30.0,58,29.94,10.0,Calm,Calm,-,0.00,,Overcast,0,2013-03-28 20:54:00
5:54 PM,45.0,30.0,56,29.95,10.0,Calm,Calm,-,N/A,,Overcast,0,2013-03-28 21:54:00
6:54 PM,44.1,30.0,58,29.97,10.0,Calm,Calm,-,N/A,,Overcast,0,2013-03-28 22:54:00
7:54 PM,37.9,28.9,70,29.99,10.0,Calm,Calm,-,N/A,,Mostly Cloudy,0,2013-03-28 23:54:00
8:54 PM,34.0,28.0,79,30.00,10.0,SW,3.5,-,N/A,,Mostly Cloudy,220,2013-03-29 00:54:00
9:54 PM,33.1,28.0,82,30.00,10.0,Calm,Calm,-,N/A,,Overcast,0,2013-03-29 01:54:00
10:54 PM,30.9,27.0,85,30.00,10.0,Calm,Calm,-,N/A,,Partly Cloudy,0,2013-03-29 02:54:00
11:54 PM,30.9,27.0,85,30.00,10.0,Calm,Calm,-,N/A,,Mostly Cloudy,0,2013-03-29 03:54:00